Powrót do katalogu

COSMOS 2251 DEB

AktywnyLEO
NORAD 34875·DEBRIS·🇷🇺 Russia

Wystrzelony Jun 16, 1993 z Plesetsk Cosmodrome

Loading…

Następne Przeloty (najbliższe 24 godziny)

TLE

ŚwieżeSource: Space-Track

Epoka: Sep 13, 2026, 13:17 UTC

1 34875U 93036ACN 26256.55360508  .00000824  00000-0  22100-3 0  9993
2 34875  74.0468   2.9516 0014767  54.5972 318.1207 14.49686164917376

Śledź COSMOS 2251 DEB w czasie rzeczywistym z AllMySat

Download on the App Store